This is the latest recevied weather packets stored in our database for station/object K4CRS-13. If no packets are shown the sender has not sent any weather packets the latest 10 day(s).
| Time | Temp. | Humidity | Pressure | Rain* | Wind** | Luminosity | Snow |
|---|---|---|---|---|---|---|---|
| 1777806013 | 3.33° C | 97% | 1055.7 hPa | 0 mm | - | 3 W/m² | - |
| 1777805709 | 3.33° C | 97% | 1055.9 hPa | 0 mm | - | 1 W/m² | - |
| 1777805407 | 3.89° C | 97% | 1055.9 hPa | 0 mm | - | 1 W/m² | - |
| 1777805106 | 3.89° C | 97% | 1056 hPa | 0 mm | - | 0 W/m² | - |
| 1777804803 | 3.89° C | 97% | 1055.8 hPa | 0 mm | - | 0 W/m² | - |
| 1777804501 | 3.89° C | 97% | 1055.6 hPa | 0 mm | - | 0 W/m² | - |
| 1777804197 | 3.89° C | 97% | 1055.3 hPa | 0 mm | - | 0 W/m² | - |
| 1777803895 | 4.44° C | 97% | 1055.6 hPa | 0 mm | - | 0 W/m² | - |
| 1777803590 | 4.44° C | 97% | 1055.7 hPa | 0 mm | - | 0 W/m² | - |
| 1777803288 | 3.89° C | 97% | 1055.5 hPa | 0 mm | - | 0 W/m² | - |
| 1777802984 | 3.89° C | 97% | 1055.6 hPa | 0 mm | - | 0 W/m² | - |
| 1777802683 | 4.44° C | 97% | 1055.4 hPa | 0 mm | - | 0 W/m² | - |
| 1777802380 | 4.44° C | 97% | 1055.5 hPa | 0 mm | - | 0 W/m² | - |
| 1777802078 | 4.44° C | 96% | 1055.4 hPa | 0 mm | - | 0 W/m² | - |
| 1777801775 | 4.44° C | 96% | 1055.5 hPa | 0 mm | - | 0 W/m² | - |
| 1777801472 | 4.44° C | 96% | 1055.3 hPa | 0 mm | - | 0 W/m² | - |
| 1777801169 | 4.44° C | 96% | 1055.3 hPa | 0 mm | - | 0 W/m² | - |
| 1777800866 | 4.44° C | 96% | 1055 hPa | 0 mm | - | 0 W/m² | - |
| 1777800566 | 4.44° C | 96% | 1055.2 hPa | 0 mm | - | 0 W/m² | - |
| 1777800263 | 5° C | 96% | 1055.1 hPa | 0 mm | - | 0 W/m² | - |
| 1777799959 | 5° C | 95% | 1055.2 hPa | 0 mm | - | 0 W/m² | - |
| 1777799656 | 5° C | 95% | 1055.3 hPa | 0 mm | - | 0 W/m² | - |
| 1777799352 | 5° C | 95% | 1055.5 hPa | 0 mm | - | 0 W/m² | - |
| 1777799048 | 4.44° C | 95% | 1055.4 hPa | 0 mm | - | 0 W/m² | - |
| 1777798744 | 4.44° C | 95% | 1055.3 hPa | 0 mm | - | 0 W/m² | - |
* Rain latest hour (hover to see other rain measurements)
** Current wind speed in m/s (hover to see current wind gust speed)